| time (UTC) | temp C | wind direction | speed KPH | gust KPH | rain 1hr cm | rain 24hr cm | rain mn cm | humidity % | barometer mb |
| 20260504024544 | 11 | 0 | 0.0 | 1.6 | 0.00 | 0.00 | 0.00 | 69 | 1014.8 |
| 20260504023048 | 11 | 0 | 0.0 | 1.6 | 0.00 | 0.00 | 0.00 | 69 | 1014.9 |
| 20260504021547 | 11 | 0 | 0.0 | 0.0 | 0.00 | 0.00 | 0.00 | 68 | 1015.0 |
| 20260504020054 | 11 | 0 | 0.0 | 0.0 | 0.00 | 0.00 | 0.00 | 70 | 1014.9 |
| 20260504014550 | 12 | 0 | 0.0 | 0.0 | 0.00 | 0.00 | 0.00 | 66 | 1015.0 |
| 20260504013042 | 12 | 0 | 0.0 | 0.0 | 0.00 | 0.00 | 0.00 | 62 | 1015.1 |
| 20260504011548 | 13 | 0 | 0.0 | 0.0 | 0.00 | 0.00 | 0.00 | 63 | 1015.2 |
| 20260504010046 | 13 | 0 | 0.0 | 0.0 | 0.00 | 0.00 | 0.00 | 58 | 1014.8 |
| 20260504004546 | 13 | 0 | 0.0 | 0.0 | 0.00 | 0.00 | 0.00 | 58 | 1014.7 |
| 20260504003047 | 14 | 0 | 0.0 | 1.6 | 0.00 | 0.00 | 0.00 | 57 | 1014.5 |
| 20260504001543 | 14 | 0 | 0.0 | 0.0 | 0.00 | 0.00 | 0.00 | 56 | 1014.3 |
| 20260504000046 | 15 | 0 | 0.0 | 3.2 | 0.00 | 0.00 | 0.00 | 56 | 1014.4 |
| 20260503234547 | 15 | 90 | 1.6 | 4.8 | 0.00 | 0.00 | 0.00 | 55 | 1014.4 |
| 20260503233045 | 16 | 0 | 0.0 | 4.8 | 0.00 | 0.00 | 0.00 | 51 | 1014.4 |
| 20260503231544 | 16 | 75 | 3.2 | 4.8 | 0.00 | 0.00 | 0.00 | 47 | 1014.5 |
| 20260503230056 | 16 | 88 | 0.0 | 3.2 | 0.00 | 0.00 | 0.00 | 49 | 1014.8 |
| 20260503224541 | 16 | 85 | 1.6 | 3.2 | 0.00 | 0.00 | 0.00 | 48 | 1015.1 |
| 20260503223046 | 16 | 82 | 3.2 | 4.8 | 0.00 | 0.00 | 0.00 | 45 | 1015.4 |
| 20260503221546 | 16 | 59 | 3.2 | 4.8 | 0.00 | 0.00 | 0.00 | 46 | 1015.6 |
| 20260503220046 | 16 | 87 | 3.2 | 6.4 | 0.00 | 0.00 | 0.00 | 43 | 1015.6 |
| 20260503214543 | 17 | 0 | 1.6 | 4.8 | 0.00 | 0.00 | 0.00 | 44 | 1016.1 |
| 20260503213043 | 17 | 82 | 3.2 | 6.4 | 0.00 | 0.00 | 0.00 | 42 | 1016.0 |
| 20260503211606 | 17 | 94 | 1.6 | 6.4 | 0.00 | 0.00 | 0.00 | 44 | 1016.2 |
| 20260503210047 | 17 | 64 | 1.6 | 4.8 | 0.00 | 0.00 | 0.00 | 42 | 1015.9 |
| 20260503204545 | 17 | 97 | 1.6 | 11.3 | 0.00 | 0.00 | 0.00 | 43 | 1016.3 |
| 20260503203048 | 17 | 0 | 1.6 | 4.8 | 0.00 | 0.00 | 0.00 | 41 | 1016.4 |
| 20260503201548 | 16 | 94 | 1.6 | 6.4 | 0.00 | 0.00 | 0.00 | 44 | 1016.8 |
| 20260503200058 | 16 | 96 | 1.6 | 8.0 | 0.00 | 0.00 | 0.00 | 41 | 1017.1 |
| 20260503194546 | 17 | 79 | 1.6 | 4.8 | 0.00 | 0.00 | 0.00 | 42 | 1017.5 |
| 20260503193056 | 16 | 42 | 3.2 | 8.0 | 0.00 | 0.00 | 0.00 | 40 | 1017.9 |
| 20260503191548 | 17 | 114 | 3.2 | 11.3 | 0.00 | 0.00 | 0.00 | 43 | 1018.1 |
| 20260503190048 | 17 | 76 | 1.6 | 9.7 | 0.00 | 0.00 | 0.00 | 43 | 1018.5 |
| 20260503184600 | 17 | 44 | 3.2 | 6.4 | 0.00 | 0.00 | 0.00 | 41 | 1019.1 |
| 20260503183045 | 16 | 44 | 3.2 | 8.0 | 0.00 | 0.00 | 0.00 | 45 | 1019.0 |
| 20260503181602 | 17 | 95 | 4.8 | 6.4 | 0.00 | 0.00 | 0.00 | 42 | 1019.3 |
| 20260503180059 | 17 | 97 | 1.6 | 4.8 | 0.00 | 0.00 | 0.00 | 41 | 1019.3 |
| 20260503174555 | 16 | 21 | 1.6 | 8.0 | 0.00 | 0.00 | 0.00 | 45 | 1019.5 |
| 20260503173057 | 16 | 63 | 3.2 | 12.9 | 0.00 | 0.00 | 0.00 | 38 | 1019.8 |
| 20260503171544 | 16 | 212 | 3.2 | 4.8 | 0.00 | 0.00 | 0.00 | 42 | 1019.9 |
| 20260503081546 | 1 | 0 | 0.0 | 0.0 | 0.00 | 0.00 | 0.00 | 87 | 1020.0 |
| 20260503071552 | 1 | 0 | 0.0 | 0.0 | 0.00 | 0.00 | 0.00 | 87 | 1019.7 |
| 20260503054543 | 2 | 0 | 0.0 | 0.0 | 0.00 | 0.00 | 0.00 | 85 | 1020.2 |
| 20260503053047 | 2 | 0 | 0.0 | 0.0 | 0.00 | 0.00 | 0.00 | 85 | 1020.1 |
| 20260503051546 | 3 | 0 | 0.0 | 0.0 | 0.00 | 0.00 | 0.00 | 84 | 1020.2 |
| 20260503050045 | 3 | 0 | 0.0 | 0.0 | 0.00 | 0.00 | 0.00 | 83 | 1020.1 |
| 20260503044548 | 3 | 0 | 0.0 | 0.0 | 0.00 | 0.00 | 0.00 | 83 | 1020.2 |
| 20260503043054 | 3 | 0 | 0.0 | 0.0 | 0.00 | 0.00 | 0.00 | 81 | 1020.3 |
| 20260503041547 | 3 | 0 | 0.0 | 0.0 | 0.00 | 0.00 | 0.00 | 81 | 1020.1 |
| 20260503040052 | 3 | 0 | 0.0 | 0.0 | 0.00 | 0.00 | 0.00 | 80 | 1020.1 |
| 20260503034544 | 4 | 0 | 0.0 | 0.0 | 0.00 | 0.00 | 0.00 | 80 | 1020.1 |
| 20260503033043 | 5 | 0 | 0.0 | 0.0 | 0.00 | 0.00 | 0.00 | 80 | 1020.1 |
| 20260503031547 | 5 | 0 | 0.0 | 0.0 | 0.00 | 0.00 | 0.00 | 80 | 1020.0 |
| 20260503030112 | 5 | 0 | 0.0 | 0.0 | 0.00 | 0.00 | 0.00 | 78 | 1020.0 |